DW5212 Weather Reports


time (UTC)temp
C
wind
direction
speed
KPH
gust
KPH
rain 1hr
cm
rain 24hr
cm
rain mn
cm
humidity
%
barometer
mb
20260904200008 33 287 1.6 4.8 0.00 0.00 0.00 60 1013.6
20260904195503 33 55 1.6 4.8 0.00 0.00 0.00 60 1013.7
20260904195005 33 134 1.6 3.2 0.00 0.00 0.00 60 1013.8
20260904194005 33 64 1.6 4.8 0.00 0.00 0.00 56 1013.8
20260904193503 33 108 1.6 4.8 0.00 0.00 0.00 56 1013.8
20260904193007 33 145 1.6 3.2 0.00 0.00 0.00 58 1013.8
20260904192504 33 33 1.6 12.9 0.00 0.00 0.00 56 1013.9
20260904192006 34 119 3.2 12.9 0.00 0.00 0.00 56 1013.9
20260904191505 34 114 1.6 4.8 0.00 0.00 0.00 56 1014.0
20260904191005 34 81 1.6 6.4 0.00 0.00 0.00 55 1014.0
20260904190005 33 304 0.0 3.2 0.00 0.00 0.00 57 1014.2
20260904185503 33 242 0.0 0.0 0.00 0.00 0.00 57 1014.1
20260904185004 33 240 0.0 0.0 0.00 0.00 0.00 58 1014.3
20260904184503 33 240 0.0 0.0 0.00 0.00 0.00 56 1014.2
20260904184004 34 232 0.0 0.0 0.00 0.00 0.00 56 1014.2
20260904183503 33 261 0.0 0.0 0.00 0.00 0.00 59 1014.3
20260904183004 33 53 0.0 1.6 0.00 0.00 0.00 58 1014.4
20260904182503 33 54 1.6 4.8 0.00 0.00 0.00 56 1014.4
20260904182003 34 54 1.6 4.8 0.00 0.00 0.00 55 1014.4
20260904181003 34 92 1.6 4.8 0.00 0.00 0.00 56 1014.5
20260904180006 34 204 1.6 6.4 0.00 0.00 0.00 56 1014.6
20260904175503 34 157 1.6 8.0 0.00 0.00 0.00 60 1014.8
20260904174503 33 151 0.0 0.0 0.00 0.00 0.00 61 1014.9
20260904174003 32 86 0.0 0.0 0.00 0.00 0.00 61 1015.0
20260904173502 33 85 0.0 0.0 0.00 0.00 0.00 61 1015.2
20260904173003 33 85 0.0 0.0 0.00 0.00 0.00 59 1015.3
20260904172502 33 85 0.0 0.0 0.00 0.00 0.00 58 1015.2
20260904172004 33 114 0.0 0.0 0.00 0.00 0.00 59 1015.6
20260904171505 33 60 1.6 3.2 0.00 0.00 0.00 60 1015.5
20260904171004 33 11 1.6 4.8 0.00 0.00 0.00 58 1015.6
20260904170503 33 50 1.6 4.8 0.00 0.00 0.00 57 1015.7
20260904170007 33 86 1.6 4.8 0.00 0.00 0.00 58 1015.8
20260904165005 33 144 1.6 6.4 0.00 0.00 0.00 59 1015.8
20260904164506 33 355 0.0 4.8 0.00 0.00 0.00 59 1015.8
20260904163504 33 348 1.6 4.8 0.00 0.00 0.00 61 1015.8
20260904163006 33 46 1.6 4.8 0.00 0.00 0.00 62 1015.8
20260904162504 33 130 1.6 4.8 0.00 0.00 0.00 63 1015.7
20260904162006 33 248 0.0 1.6 0.00 0.00 0.00 63 1015.8
20260904161505 32 274 0.0 3.2 0.00 0.00 0.00 64 1015.8
20260904160504 32 61 0.0 1.6 0.00 0.00 0.00 65 1016.0
20260904160006 32 65 1.6 3.2 0.00 0.00 0.00 67 1015.9
20260904155503 31 65 1.6 3.2 0.00 0.00 0.00 65 1016.0
20260904155004 31 44 0.0 3.2 0.00 0.00 0.00 66 1015.8
20260904154504 31 34 0.0 0.0 0.00 0.00 0.00 68 1015.8
20260904153503 31 53 0.0 4.8 0.00 0.00 0.00 67 1015.9
20260904153005 31 53 1.6 4.8 0.00 0.00 0.00 68 1016.0
20260904152504 31 53 1.6 4.8 0.00 0.00 0.00 68 1016.0
20260904152005 31 80 1.6 3.2 0.00 0.00 0.00 70 1015.9
20260904151005 30 118 0.0 0.0 0.00 0.00 0.00 72 1015.8
20260904150503 30 118 0.0 0.0 0.00 0.00 0.00 75 1015.7
20260904150006 30 118 0.0 0.0 0.00 0.00 0.00 77 1015.8
20260904145504 29 117 0.0 0.0 0.00 0.00 0.00 78 1015.9
20260904145005 29 117 0.0 1.6 0.00 0.00 0.00 79 1015.8
20260904144504 28 117 0.0 3.2 0.00 0.00 0.00 81 1015.8
20260904144003 28 117 0.0 3.2 0.00 0.00 0.00 83 1015.7
20260904143503 27 197 0.0 0.0 0.00 0.00 0.00 85 1015.9
20260904143004 27 197 0.0 0.0 0.00 0.00 0.00 87 1015.9
20260904142504 26 197 0.0 0.0 0.00 0.00 0.00 90 1015.9
20260904142005 26 197 0.0 0.0 0.00 0.00 0.00 91 1015.9
20260904141504 25 197 0.0 0.0 0.00 0.00 0.00 92 1015.9
20260904141004 25 196 0.0 0.0 0.00 0.00 0.00 93 1015.8
20260904140504 25 197 0.0 0.0 0.00 0.00 0.00 93 1015.8
20260904140006 25 197 0.0 0.0 0.00 0.00 0.00 94 1015.9
20260904135504 25 197 0.0 0.0 0.00 0.00 0.00 94 1015.8
20260904135006 24 196 0.0 0.0 0.00 0.00 0.00 95 1015.7
20260904134503 24 197 0.0 0.0 0.00 0.00 0.00 95 1015.7
20260904133503 23 197 0.0 0.0 0.00 0.00 0.00 95 1015.5
20260904133006 23 197 0.0 0.0 0.00 0.00 0.00 94 1015.6
20260904132503 23 196 0.0 0.0 0.00 0.00 0.00 94 1015.6
20260904132004 23 197 0.0 0.0 0.00 0.00 0.00 94 1015.5
20260904131504 23 197 0.0 0.0 0.00 0.00 0.00 94 1015.5
20260904131003 23 197 0.0 0.0 0.00 0.00 0.00 94 1015.5
20260904130503 23 197 0.0 0.0 0.00 0.00 0.00 94 1015.5
20260904130004 23 196 0.0 0.0 0.00 0.00 0.00 94 1015.3
20260904125004 22 197 0.0 0.0 0.00 0.00 0.00 94 1015.5
20260904124003 22 197 0.0 0.0 0.00 0.00 0.00 93 1015.3
20260904123504 22 197 0.0 0.0 0.00 0.00 0.00 93 1015.3
20260904122503 22 197 0.0 0.0 0.00 0.00 0.00 93 1015.2
20260904122004 22 196 0.0 0.0 0.00 0.00 0.00 93 1015.3
20260904121505 22 197 0.0 0.0 0.00 0.00 0.00 93 1015.3
20260904121004 22 197 0.0 0.0 0.00 0.00 0.00 93 1015.2
20260904120502 22 197 0.0 0.0 0.00 0.00 0.00 93 1015.1
20260904120006 22 196 0.0 0.0 0.00 0.00 0.00 93 1015.1
20260904115504 22 197 0.0 0.0 0.00 0.00 0.00 93 1015.0
20260904115004 22 197 0.0 0.0 0.00 0.00 0.00 93 1014.8
20260904114503 22 197 0.0 0.0 0.00 0.00 0.00 93 1014.8
20260904114003 22 197 0.0 0.0 0.00 0.00 0.00 92 1014.6
20260904113004 22 197 0.0 0.0 0.00 0.00 0.00 93 1014.6
20260904112503 22 197 0.0 0.0 0.00 0.00 0.00 93 1014.6
20260904112004 22 196 0.0 0.0 0.00 0.00 0.00 93 1014.6
20260904111503 23 197 0.0 0.0 0.00 0.00 0.00 93 1014.6
20260904111003 23 197 0.0 0.0 0.00 0.00 0.00 93 1014.6
20260904110502 23 197 0.0 0.0 0.00 0.00 0.00 93 1014.5
20260904110006 23 196 0.0 0.0 0.00 0.00 0.00 93 1014.5
20260904105503 22 197 0.0 0.0 0.00 0.00 0.00 93 1014.4
20260904105004 23 197 0.0 0.0 0.00 0.00 0.00 93 1014.5
20260904104503 23 197 0.0 0.0 0.00 0.00 0.00 93 1014.5
20260904104004 23 197 0.0 0.0 0.00 0.00 0.00 92 1014.4
20260904103503 23 197 0.0 0.0 0.00 0.00 0.00 92 1014.4
20260904103004 23 196 0.0 0.0 0.00 0.00 0.00 92 1014.4
20260904102503 23 197 0.0 0.0 0.00 0.00 0.00 92 1014.4
20260904102006 23 197 0.0 0.0 0.00 0.00 0.00 92 1014.4
20260904101503 23 197 0.0 0.0 0.00 0.00 0.00 92 1014.4
20260904101003 23 197 0.0 0.0 0.00 0.00 0.00 92 1014.4
20260904100005 23 197 0.0 0.0 0.00 0.00 0.00 92 1014.4
20260904095503 23 197 0.0 0.0 0.00 0.00 0.00 92 1014.3
20260904095004 23 197 0.0 0.0 0.00 0.00 0.00 92 1014.3
20260904094504 23 197 0.0 0.0 0.00 0.00 0.00 92 1014.3
20260904093504 23 197 0.0 0.0 0.00 0.00 0.00 92 1014.4
20260904093003 23 197 0.0 0.0 0.00 0.00 0.00 92 1014.4
20260904092004 23 197 0.0 0.0 0.00 0.00 0.00 92 1014.4
20260904091552 23 197 0.0 0.0 0.00 0.00 0.00 92 1014.4
20260904090502 23 197 0.0 0.0 0.00 0.00 0.00 91 1014.4
20260904090005 23 196 0.0 0.0 0.00 0.00 0.00 91 1014.2
20260904085502 23 197 0.0 0.0 0.00 0.00 0.00 91 1014.1
20260904085004 23 197 0.0 0.0 0.00 0.00 0.00 91 1014.1
20260904084505 23 197 0.0 0.0 0.00 0.00 0.00 91 1014.0
20260904084003 23 197 0.0 0.0 0.00 0.00 0.00 91 1014.1
20260904083504 23 197 0.0 0.0 0.00 0.00 0.00 91 1014.0
20260904083004 23 197 0.0 0.0 0.00 0.00 0.00 91 1014.0
20260904082502 23 197 0.0 0.0 0.00 0.00 0.00 91 1013.8
20260904082006 23 197 0.0 0.0 0.00 0.00 0.00 91 1013.9
20260904081503 23 196 0.0 0.0 0.00 0.00 0.00 91 1014.1
20260904081004 23 197 0.0 0.0 0.00 0.00 0.00 92 1014.1
20260904080502 23 196 0.0 0.0 0.00 0.00 0.00 92 1014.0
20260904080005 23 197 0.0 0.0 0.00 0.00 0.00 92 1013.8
20260904075502 23 196 0.0 0.0 0.00 0.00 0.00 92 1014.0
20260904075003 23 197 0.0 0.0 0.00 0.00 0.00 92 1013.9
20260904074004 23 197 0.0 0.0 0.00 0.00 0.00 92 1013.8
20260904073503 23 197 0.0 0.0 0.00 0.00 0.00 92 1013.8
20260904073003 23 197 0.0 0.0 0.00 0.00 0.00 92 1013.8
20260904072503 23 197 0.0 0.0 0.00 0.00 0.00 91 1013.9
20260904072005 23 197 0.0 0.0 0.00 0.00 0.00 91 1014.0
20260904071503 23 196 0.0 0.0 0.00 0.00 0.00 91 1013.8
20260904071003 23 197 0.0 0.0 0.00 0.00 0.00 91 1013.7
20260904070503 24 197 0.0 0.0 0.00 0.00 0.00 91 1013.8
20260904070005 24 197 0.0 0.0 0.00 0.00 0.00 91 1013.7
20260904065502 23 197 0.0 0.0 0.00 0.00 0.00 92 1013.7
20260904065003 23 197 0.0 0.0 0.00 0.00 0.00 92 1013.9
20260904064505 23 197 0.0 0.0 0.00 0.00 0.00 92 1013.7
20260904064004 23 197 0.0 0.0 0.00 0.00 0.00 91 1013.7
20260904063503 23 197 0.0 0.0 0.00 0.00 0.00 91 1013.6
20260904063005 24 196 0.0 0.0 0.00 0.00 0.00 91 1013.6
20260904062503 24 197 0.0 0.0 0.00 0.00 0.00 90 1013.6
20260904062003 24 197 0.0 0.0 0.00 0.00 0.00 90 1013.6
20260904061004 24 197 0.0 0.0 0.00 0.00 0.00 90 1013.7
20260904060502 24 197 0.0 0.0 0.00 0.00 0.00 90 1013.7
20260904060006 24 197 0.0 0.0 0.00 0.00 0.00 90 1013.6
20260904055503 25 197 0.0 0.0 0.00 0.00 0.00 90 1013.6
20260904055003 25 197 0.0 0.0 0.00 0.00 0.00 90 1013.6
20260904054503 25 197 0.0 0.0 0.00 0.00 0.00 90 1013.5
20260904054004 25 197 0.0 0.0 0.00 0.00 0.00 89 1013.7
20260904053504 25 197 0.0 0.0 0.00 0.00 0.00 89 1013.6
20260904052506 25 197 0.0 0.0 0.00 0.00 0.00 89 1013.7
20260904052005 25 197 0.0 0.0 0.00 0.00 0.00 89 1013.6
20260904051504 25 197 0.0 0.0 0.00 0.00 0.00 89 1013.5
20260904051004 25 197 0.0 0.0 0.00 0.00 0.00 89 1013.3
20260904050005 25 197 0.0 0.0 0.00 0.00 0.00 89 1013.6
20260904045504 25 197 0.0 0.0 0.00 0.00 0.00 89 1013.6
20260904045004 25 197 0.0 0.0 0.00 0.00 0.00 88 1013.5
20260904044505 25 197 0.0 0.0 0.00 0.00 0.00 88 1013.5
20260904043503 25 197 0.0 0.0 0.00 0.00 0.00 88 1013.4
20260904043005 25 197 0.0 0.0 0.00 0.00 0.00 88 1013.4
20260904042503 25 197 0.0 0.0 0.00 0.00 0.00 87 1013.5
20260904042005 25 197 0.0 0.0 0.00 0.00 0.00 87 1013.6
20260904041504 25 197 0.0 0.0 0.00 0.00 0.00 88 1013.5
20260904040503 25 197 0.0 0.0 0.00 0.00 0.00 87 1013.7
20260904040005 25 197 0.0 0.0 0.00 0.00 0.00 87 1013.7
20260904035004 25 197 0.0 0.0 0.00 0.00 0.00 87 1013.6
20260904034503 25 197 0.0 0.0 0.00 0.00 0.00 87 1013.8
20260904034004 25 197 0.0 0.0 0.00 0.00 0.00 86 1013.8
20260904033503 26 197 0.0 0.0 0.00 0.00 0.00 86 1013.9
20260904033004 26 197 0.0 0.0 0.00 0.00 0.00 86 1013.9
20260904032504 26 197 0.0 0.0 0.00 0.00 0.00 86 1013.9
20260904032004 26 197 0.0 0.0 0.00 0.00 0.00 86 1013.8
20260904031503 26 197 0.0 0.0 0.00 0.00 0.00 86 1013.6
20260904031004 26 197 0.0 0.0 0.00 0.00 0.00 85 1013.6
20260904030502 26 197 0.0 0.0 0.00 0.00 0.00 85 1013.4
20260904030005 26 197 0.0 0.0 0.00 0.00 0.00 85 1013.5
20260904025503 26 197 0.0 0.0 0.00 0.00 0.00 84 1013.5
20260904024004 26 197 0.0 0.0 0.00 0.00 0.00 83 1013.5
20260904022005 27 197 0.0 0.0 0.00 0.00 0.00 81 1013.5
20260904021503 27 197 0.0 0.0 0.00 0.00 0.00 80 1013.4
20260904020503 27 197 0.0 0.0 0.00 0.00 0.00 79 1013.3
20260904020005 27 197 0.0 0.0 0.00 0.00 0.00 79 1013.4
20260904015503 27 197 0.0 0.0 0.00 0.00 0.00 78 1013.4
20260904015004 27 197 0.0 0.0 0.00 0.00 0.00 78 1013.3
20260904014503 27 197 0.0 0.0 0.00 0.00 0.00 78 1013.3
20260904014004 28 197 0.0 0.0 0.00 0.00 0.00 77 1013.3
20260904013503 28 197 0.0 0.0 0.00 0.00 0.00 77 1013.2
20260904013004 28 197 0.0 0.0 0.00 0.00 0.00 76 1013.1
20260904012503 28 197 0.0 0.0 0.00 0.00 0.00 76 1013.1
20260904012004 28 197 0.0 0.0 0.00 0.00 0.00 75 1013.1
20260904011504 28 197 0.0 0.0 0.00 0.00 0.00 74 1013.2
20260904011003 28 197 0.0 0.0 0.00 0.00 0.00 73 1013.3
20260904010503 29 197 0.0 0.0 0.00 0.00 0.00 73 1013.2
20260904010004 29 197 0.0 0.0 0.00 0.00 0.00 73 1013.3
20260904005503 29 197 0.0 0.0 0.00 0.00 0.00 73 1013.4
20260904005004 30 197 0.0 0.0 0.00 0.00 0.00 73 1013.4
20260904004503 30 197 0.0 0.0 0.00 0.00 0.00 72 1013.4
20260904004003 30 197 0.0 0.0 0.00 0.00 0.00 70 1013.3
20260904003503 30 197 0.0 0.0 0.00 0.00 0.00 70 1013.3
20260904002503 30 197 0.0 6.4 0.00 0.00 0.00 69 1013.2
20260904002004 30 196 1.6 6.4 0.00 0.00 0.00 69 1013.1
20260904001503 30 258 1.6 8.0 0.00 0.00 0.00 68 1013.1
20260903235504 31 202 3.2 8.0 0.00 0.00 0.00 67 1012.5
20260903235004 31 221 1.6 6.4 0.00 0.00 0.00 66 1012.5
20260903234503 31 172 1.6 6.4 0.00 0.00 0.00 67 1012.5
20260903233503 32 178 1.6 11.3 0.00 0.00 0.00 65 1012.4
20260903233004 32 160 0.0 11.3 0.00 0.00 0.00 64 1012.5
20260903232502 32 240 0.0 4.8 0.00 0.00 0.00 65 1012.4
20260903232003 32 209 0.0 1.6 0.00 0.00 0.00 59 1012.3
20260903231504 32 245 1.6 4.8 0.00 0.00 0.00 58 1012.3
20260903231004 32 238 1.6 4.8 0.00 0.00 0.00 57 1012.3
20260903230503 32 241 1.6 6.4 0.00 0.00 0.00 56 1012.3
20260903230007 32 198 1.6 6.4 0.00 0.00 0.00 56 1012.4
20260903225503 32 203 1.6 4.8 0.00 0.00 0.00 56 1012.3
20260903224003 32 246 0.0 3.2 0.00 0.00 0.00 57 1012.4
20260903223503 33 153 0.0 3.2 0.00 0.00 0.00 57 1012.5
20260903223004 33 171 0.0 3.2 0.00 0.00 0.00 56 1012.5
20260903222503 33 290 1.6 4.8 0.00 0.00 0.00 55 1012.5
20260903221504 33 192 3.2 6.4 0.00 0.00 0.00 55 1012.7
20260903221004 33 69 3.2 11.3 0.00 0.00 0.00 55 1012.6
20260903220504 33 105 3.2 8.0 0.00 0.00 0.00 54 1012.6
20260903220009 33 233 1.6 6.4 0.00 0.00 0.00 55 1012.7
20260903215503 33 80 1.6 6.4 0.00 0.00 0.00 58 1012.8
20260903215004 33 119 0.0 4.8 0.00 0.00 0.00 58 1012.7
20260903214504 32 118 0.0 4.8 0.00 0.00 0.00 57 1012.9
20260903214004 32 68 0.0 4.8 0.00 0.00 0.00 57 1012.9
20260903213503 32 87 0.0 0.0 0.00 0.00 0.00 59 1012.8
20260903213004 32 87 0.0 3.2 0.00 0.00 0.00 59 1012.9
20260903212004 33 101 1.6 4.8 0.00 0.00 0.00 60 1013.1
20260903211004 33 86 1.6 4.8 0.00 0.00 0.00 58 1013.4
20260903210503 33 200 0.0 4.8 0.00 0.00 0.00 58 1013.5
20260903210009 35 245 0.0 4.8 0.00 0.00 0.00 56 1013.6
20260903205503 35 190 1.6 6.4 0.00 0.00 0.00 54 1013.6
20260903205003 35 190 3.2 11.3 0.00 0.00 0.00 51 1013.7
20260903204504 35 112 3.2 8.0 0.00 0.00 0.00 50 1013.8
20260903204004 35 193 3.2 8.0 0.00 0.00 0.00 52 1013.8
20260903203008 35 115 3.2 8.0 0.00 0.00 0.00 51 1013.8
20260903202503 35 140 3.2 8.0 0.00 0.00 0.00 52 1013.8
20260903202004 35 273 3.2 8.0 0.00 0.00 0.00 52 1013.7
20260903201503 35 103 1.6 9.7 0.00 0.00 0.00 52 1013.7
20260903201004 35 34 1.6 4.8 0.00 0.00 0.00 52 1013.7
20260903200504 35 113 1.6 9.7 0.00 0.00 0.00 54 1013.8